Regional Weather Roundup
Issued by NWS Wakefield, VA

Home | Current Version | Previous Version | Graphics & Text | Print | Product List | Glossary On
Versions: 1 2 3 4 5 6 7 8 9 10 11 12 13 14 15 16 17 18 19 20 21 22 23 24 25 26 27 28
000
ASUS41 KAKQ 230815
RWRAKQ

REGIONAL WEATHER ROUNDUP
NATIONAL WEATHER SERVICE WAKEFIELD VA
400 AM EDT TUE AUG 23 2016

Note: "fair" indicates few or no clouds below 12,000 feet with no
significant weather and/or obstructions to visibility. * = Denotes
station may not report precipitation (e.g., rain,snow,etc.),
thunder or fog.

VAZ042-051-052>054-056-230900-
NORTHERN VIRGINIA

CITY           SKY/WX    TMP DP  RH WIND       PRES   REMARKS
WASH NATIONAL  PTCLDY    69  60  73 N6        30.26R
DULLES         PTCLDY    62  59  90 NW3       30.27R
FORT BELVOIR   MOCLDY    62  61  95 CALM      30.25S
QUANTICO       CLOUDY    68  62  81 E5        30.26R
FREDERICKSBRG* CLOUDY    68  68  99 CALM      30.24R
STAFFORD*      CLOUDY    64  62  93 CALM      30.29R
WARRENTON      CLOUDY    65  57  76 NE3       30.26R HAZE
CULPEPER*      CLOUDY    65  64  95 CALM      30.27R
MANASSAS*      CLEAR     63  63 100 CALM      30.26S
LEESBURG*      CLEAR     63  61  94 N3        30.28S
WINCHESTER     MOCLDY    59  55  88 CALM      30.28R
FRONT ROYAL*   PTSUNNY   57  57 100 CALM      30.28R
LURAY*         FAIR     N/A N/A N/A CALM      30.28S
$$

VAZ048-049-060>072-079>083-230900-
CENTRAL AND SOUTH CENTRAL VIRGINIA

CITY           SKY/WX    TMP DP  RH WIND       PRES   REMARKS
RICHMOND       PTCLDY    66  61  84 N3        30.23R
CHESTERFIELD*  FAIR      63  48  59 CALM      30.25R
PETERSBURG*    PTCLDY   N/A N/A N/A CALM      30.24R
HANOVER        MOCLDY    62  59  90 CALM      30.26R
TAPPAHANNOCK*  PTCLDY    63  63 100 CALM      30.24S
QUINTON*       FAIR      62  61  97 CALM      30.23R
CHARLOTTSVILLE PTCLDY    65  62  90 CALM      30.26R
GORDONSVILLE*  CLOUDY    64  64 100 CALM      30.25R
ORANGE*          N/A     68  63  83 CALM      30.27S
LOUISA*        CLOUDY    70  66  88 CALM      30.24S
BUMPASS*       CLOUDY    64  64 100 CALM      30.25R
FARMVILLE*     MOCLDY   N/A N/A N/A CALM      30.24R
CREWE*         FAIR      59  59 100 CALM      30.24R
FORT PICKETT*  NOT AVBL
CHASE CITY*    PTSUNNY   63  62  94 CALM      30.24R
CLARKSVILLE*   FAIR      63  63 100 CALM      30.23R
SOUTH HILL*    CLEAR     60  60  97 CALM      30.29R
LAWRENCEVILLE* FAIR      64  62  94 CALM      30.23S
EMPORIA*       CLEAR     61  59  94 CALM      30.24S
$$

VAZ088>098-230900-
SOUTHEAST VIRGINIA

CITY           SKY/WX    TMP DP  RH WIND       PRES   REMARKS
NORFOLK        CLEAR     71  67  87 CALM      30.21S
VIRGINIA BEACH PTCLDY    73  64  73 CALM      30.20S
NORFOLK NAVAL  PTCLDY    69  65  86 CALM      30.23R
WEST POINT*    PTCLDY    62  61  97 CALM      30.24S
SALUDA*        FAIR      73  65  75 CALM      30.22S
NEWPORT NEWS   CLEAR     66  64  93 CALM      30.22S
LANGLEY AFB    CLEAR     68  65  91 W1        30.21S
FORT EUSTIS    CLEAR     67  64  89 CALM      30.19S
WILLIAMSBURG*  PTCLDY    66  64  94 CALM      30.23R
HR EXEC AP*    FAIR      61  57  88 CALM      30.24R
FRANKLIN*      PTCLDY    62  61  95 CALM      30.22S
US460-WAKEFLD  PTCLDY    62  59  90 CALM      30.22S
$$

VAZ020-022-025-037-045-230900-
WEST CENTRAL AND SOUTHWEST VIRGINIA

CITY           SKY/WX    TMP DP  RH WIND       PRES   REMARKS
STAUNTON*      CLOUDY    59  57  92 CALM      30.31R
WAYNESBORO*    PTSUNNY   61  59  92 CALM      30.30R
HOT SPRINGS VA CLEAR     60  52  76 E3        30.36R
LYNCHBURG      CLOUDY    63  61  93 CALM      30.27R
DANVILLE       CLEAR     61  60  97 CALM      30.25R
SOUTH BOSTON*  NOT AVBL
MARTINSVILLE   PTCLDY    58  57  97 CALM      30.29R
ROANOKE        MOCLDY    61  57  87 CALM      30.30R
BLACKSBURG     MOCLDY    55  55 100 CALM      30.35R
DUBLIN*        PTCLDY    58  57  98 CALM      30.33S
MARION*        PTCLDY    57  55  95 CALM      30.35S
HILLSVILLE*    MOCLDY    58  56  93 CALM      30.32S
RICHLANDS*     PTSUNNY   59  56  88 NE5       30.32S
WISE*          CLEAR     57  48  72 CALM      30.33S
ABINGDON*      MOCLDY    62  59  90 E3        30.30R
$$

MDZ021>025-VAZ099-100-230900-
SOUTHERN MARYLAND AND THE DELMARVA PENINSULA

CITY           SKY/WX    TMP DP  RH WIND       PRES   REMARKS
PATUXENT RIVER CLEAR     71  58  63 E12       30.24R
BAY BRIDGE APT CLEAR     68  55  64 E5        30.26R
LEONARDTOWN    CLEAR     64  59  82 E3        30.26S
DOVER          CLEAR     64  56  75 NE8       30.24S
GEORGETOWN     CLEAR     63  55  75 CALM      30.26R
EASTON         CLEAR     64  60  87 CALM      30.29S
CAMBRIDGE      CLEAR     63  55  77 NE3       30.25R
SALISBURY      CLEAR     62  58  86 CALM      30.24S
OCEAN CITY     CLEAR     71  54  54 NE9       30.24R
WALLOPS ISLAND CLEAR     68  58  70 N6        30.24R
ACCOMACK*      CLEAR     65  58  77 NE7       30.23S
$$

NCZ012>017-030>032-230900-
NORTH CENTRAL AND EASTERN NORTH CAROLINA

CITY           SKY/WX    TMP DP  RH WIND       PRES   REMARKS
ROANOKE RAPIDS FAIR      61  61 100 CALM      30.22S
RALEIGH        MOCLDY    70  60  70 E8        30.22S
ELIZABETH CITY PTCLDY    66  65  96 CALM      30.21S
AHOSKIE*       CLEAR     63  62  97 CALM      30.22S
EDENTON*       PTCLDY    68  68 100 CALM      30.22S
CURRITUCK*       N/A     68  67  97 CALM      30.22S
KILL DEVIL HLS PTCLDY    72  69  91 CALM      30.20R
MANTEO         PTCLDY    72  65  80 CALM      30.21S
CAPE HATTERAS  CLEAR     75  63  66 NE6       30.19S
TARBORO*       FAIR      65  65  99 CALM      30.23R FOG
GOLDSBORO      PTCLDY    68  68 100 CALM      30.19R
WASHINGTON     CLEAR     68  64  86 CALM      30.21S
GREENVILLE     PTCLDY    68  68 100 CALM      30.22S
NEW BERN       MOCLDY    72  69  90 CALM      30.21S
WILMINGTON     CLEAR     71  69  93 CALM      30.19R
$$

VAZ048-230900-
ELSEWHERE

CITY           SKY/WX    TMP DP  RH WIND       PRES   REMARKS
HARRISBURG PA  CLEAR     60  57  89 N3        30.27R
BALTIMORE      PTCLDY    61  58  90 CALM      30.26R
ANNAPOLIS      CLEAR     72  58  61 E5        30.25R
ANDREWS AFB    CLEAR     62  58  87 CALM      30.25R
PHILADELPHIA   CLEAR     65  52  62 NW5       30.27R
HENDERSON NC   PTCLDY    64  58  82 CALM      30.24R
GREENSBORO     MOCLDY    67  63  87 N7        30.25R
ROCKY MOUNT    PTCLDY    65  65 100 CALM      30.22R
$$

VAZ100-230900-
MARINE

STATION/POSITION TIME  TEMP    WIND        PRES    WAVE   SWELL
                       AIR SEA DIR/SP/G            HT/PER HT/PER
                 (UTC) (F)     (DEG/KT/KT) (MB)    (FT/S) (FT/S)
CAPE MAY NJ      0700   66 72   50/  2/  4 1023.5R
LEWES DE         0700   71 75   60/ 11/ 13 1023.9R
OCEAN-CITY-INLET 0700   73 72   70/  4/  8 1024.1R
WACHAPREAGUE VA  0700   70 81   10/  4/  5 1023.4R
THOMAS POINT MD  0800   73 82   80/ 14/ 16 1025.7R
GOOSES REEF MD   0700   75 83   90/ 12/ 16 1024.6R   1/ 2
COVE POINT MD    0700   72     100/ 13/ 17 1024.5R
SOLOMONS ISLAND  0700   75 85   60/  9/ 12   N/A
BISHOPS HEAD MD  0700   72 79   70/ 12/ 17 1024.0R
PINEY POINT MD   0700           70/  5/  5   N/A
POTOMAC MD       0700   78 83   80/ 12/ 16 1022.4R   1/ 2
CAMBRIDGE MD     0700   71 85   90/  8/ 11 1023.3R
LEWISETTA VA     0700   78 82   80/ 11/ 14 1023.1R
RAPPAHANNOCK LGT 0700           50/ 13/ 14 1023.8R
STINGRAY PT      0700   79 84   40/ 12/ 14 1023.6R   1/ 2
YORK RVR RNG VA  0700   79      80/ 10/ 11 1022.5R
YORKTOWN VA      0700   77 83   50/  6/  7 1022.6R
JAMESTOWN VA     0700   73 86   CALM  /  2   N/A     0
DOMINION TERM VA 0700   75      40/  3/  5 1023.0R
KIPTOPEKE VA     0700      79   70/  3/  4   N/A
CHES BAY BRIDGE  0700   77 78   40/  7/  9 1022.7R
CAPE HENRY VA    0700   76      50/  6/  7   N/A
WILLOUBY STN VA  0700   77      70/  2/  5   N/A
CAPE HENRY BUOY  0712      80                N/A     2/ 6
1ST LANDING BUOY 0700   76 77   70/  4/  6 1022.8R   1/ 4
CAPE CHARLES BUO 0756      77                N/A     2/13
OFFSHORE WE BUOY 0751      80                N/A     3/ 6
64NM E OF VA BCH 0750   79 81   20/ 12/ 16 1022.5R   3/ 6   2/ 6
DUCK PIER NC     0700   78 77   20/  7/  7 1022.1R
44100 DUCK FRF   0735      80                N/A     3/ 6
44056 DUCK FRF   0711      77                N/A     2/ 6
OREGON INLET NC  0700   74 80  360/  1/  2 1022.4R
HATTERAS NC      0700   79 82   50/  5/  9 1022.0R
DIAMOND SHLS NC  0750   81 85   30/ 12/ 16 1022.2R   3/ 6   2/ 8
CAPE LOOKOUT NC  0800   80      70/  9/ 10 1022.1R
$$




USA.gov is the U.S. government's official web portal to all federal, state and local government web resources and services.